Location: 22
(39.7117°N, 89.5929°W)
Time: 18:45:51
(UTC-05:00)

Vanguard 3 - Pass Details

Date: 31 January 2023
Orbit: 508 x 3249 km, 33.4° (Epoch: 30 March)

Event Time Altitude Azimuth Distance (km) Brightness Sun altitude
Rises 18:48:07 0° 228° (SW) 4,219 11.8 -17.8°
Reaches altitude 10° 18:50:37 10° 222° (SW) 3,544 11.1 -18.2°
Maximum altitude 18:59:46 48° 151° (SSE) 2,571 9.4 -20.0°
Enters shadow 19:07:56 27° 97° (E) 4,037 10.1 -21.5°
Drops below altitude 10° 19:14:58 10° 85° (E) 5,744 - -22.9°
Sets 19:20:16 0° 81° (E) 7,014 - -23.9°
